Time,TemperatureF,DewpointF,PressureIn,WindDirection,WindDirectionDegrees,WindSpeedMPH,WindSpeedGustMPH,Humidity,HourlyPrecipIn,Conditions,Clouds,dailyrainin,SoftwareType,DateUTC
2013-12-06 00:05:00,-3.5,-7.4,30.44,West,259,6.0,7.3,83,0.00,,CLR,0.00,VWS V14.01,2013-12-06 06:05:00,
2013-12-06 00:10:00,-3.7,-7.6,30.44,WNW,296,4.0,9.4,83,0.00,,CLR,0.00,VWS V14.01,2013-12-06 06:10:00,
2013-12-06 00:15:00,-3.7,-7.6,30.44,WNW,302,4.0,8.4,83,0.00,,CLR,0.00,VWS V14.01,2013-12-06 06:15:00,
2013-12-06 00:20:00,-3.7,-7.6,30.44,West,271,4.0,8.4,83,0.00,,CLR,0.00,VWS V14.01,2013-12-06 06:20:00,
2013-12-06 00:25:00,-3.8,-7.7,30.44,West,280,2.0,7.3,83,0.00,,CLR,0.00,VWS V14.01,2013-12-06 06:25:00,
2013-12-06 00:30:00,-3.8,-7.7,30.44,West,270,6.0,11.5,83,0.00,,CLR,0.00,VWS V14.01,2013-12-06 06:30:00,
2013-12-06 00:35:00,-3.8,-7.7,30.44,West,279,6.0,9.4,83,0.00,,CLR,0.00,VWS V14.01,2013-12-06 06:35:00,
2013-12-06 00:45:00,-3.8,-7.7,30.44,WNW,288,7.0,8.4,83,0.00,,CLR,0.00,VWS V14.01,2013-12-06 06:45:00,
2013-12-06 00:50:00,-3.9,-8.0,30.45,West,277,2.0,8.4,82,0.00,,CLR,0.00,VWS V14.01,2013-12-06 06:50:00,
2013-12-06 01:00:00,-4.0,-7.8,30.44,WSW,255,1.0,7.3,83,0.00,,CLR,0.00,VWS V14.01,2013-12-06 07:00:00,
2013-12-06 01:10:00,-4.2,-8.0,30.45,West,279,4.0,8.4,83,0.00,,CLR,0.00,VWS V14.01,2013-12-06 07:10:00,
2013-12-06 01:15:00,-4.4,-8.5,30.44,WSW,249,2.0,9.4,82,0.00,,CLR,0.00,VWS V14.01,2013-12-06 07:15:00,
2013-12-06 01:25:00,-4.6,-8.7,30.45,West,262,4.0,8.4,82,0.00,,CLR,0.00,VWS V14.01,2013-12-06 07:25:00,
2013-12-06 01:30:00,-4.7,-8.5,30.45,West,281,3.0,7.3,83,0.00,,CLR,0.00,VWS V14.01,2013-12-06 07:30:00,
2013-12-06 01:35:00,-4.8,-8.6,30.45,West,281,1.0,7.3,83,0.00,,CLR,0.00,VWS V14.01,2013-12-06 07:35:00,
2013-12-06 01:40:00,-4.8,-8.6,30.45,West,281,3.0,9.4,83,0.00,,CLR,0.00,VWS V14.01,2013-12-06 07:40:00,
2013-12-06 01:50:00,-5.7,-9.8,30.45,West,273,6.0,6.3,82,0.00,,CLR,0.00,VWS V14.01,2013-12-06 07:50:00,
2013-12-06 01:55:00,-6.0,-10.1,30.45,West,276,4.0,6.3,82,0.00,,CLR,0.00,VWS V14.01,2013-12-06 07:55:00,
2013-12-06 02:05:00,-6.0,-9.8,30.46,West,270,3.0,8.4,83,0.00,,CLR,0.00,VWS V14.01,2013-12-06 08:05:00,
2013-12-06 02:10:00,-6.0,-9.8,30.46,West,278,4.0,6.3,83,0.00,,CLR,0.00,VWS V14.01,2013-12-06 08:10:00,
2013-12-06 02:15:00,-6.0,-9.8,30.46,West,278,4.0,4.2,83,0.00,,CLR,0.00,VWS V14.01,2013-12-06 08:15:00,
2013-12-06 02:20:00,-6.0,-9.8,30.46,West,278,4.0,4.2,83,0.00,,CLR,0.00,VWS V14.01,2013-12-06 08:20:00,
2013-12-06 06:20:00,-8.6,-12.4,30.53,WNW,286,1.0,3.1,83,0.00,,CLR,0.00,VWS V14.01,2013-12-06 12:20:00,
2013-12-06 06:25:00,-8.6,-12.1,30.53,WNW,294,1.0,3.1,84,0.00,,CLR,0.00,VWS V14.01,2013-12-06 12:25:00,
2013-12-06 06:30:00,-8.5,-12.0,30.53,West,279,2.0,7.3,84,0.00,,CLR,0.00,VWS V14.01,2013-12-06 12:30:00,
2013-12-06 06:35:00,-8.3,-11.8,30.54,WNW,296,1.0,4.2,84,0.00,,CLR,0.00,VWS V14.01,2013-12-06 12:35:00,
2013-12-06 06:40:00,-8.4,-11.9,30.54,WNW,292,0.0,1.0,84,0.00,,CLR,0.00,VWS V14.01,2013-12-06 12:40:00,
2013-12-06 06:50:00,-8.8,-12.6,30.55,WNW,293,0.0,0.0,83,0.00,,CLR,0.00,VWS V14.01,2013-12-06 12:50:00,
2013-12-06 06:55:00,-9.1,-12.9,30.55,WNW,294,0.0,0.0,83,0.00,,CLR,0.00,VWS V14.01,2013-12-06 12:55:00,
2013-12-06 07:00:00,-9.1,-12.9,30.55,West,270,2.0,4.2,83,0.00,,CLR,0.00,VWS V14.01,2013-12-06 13:00:00,
2013-12-06 07:05:00,-8.8,-12.3,30.55,West,280,3.0,3.1,84,0.00,,CLR,0.00,VWS V14.01,2013-12-06 13:05:00,
2013-12-06 07:10:00,-8.4,-11.9,30.55,WNW,285,0.0,6.3,84,0.00,,CLR,0.00,VWS V14.01,2013-12-06 13:10:00,
2013-12-06 07:15:00,-8.1,-11.6,30.56,WNW,283,4.0,6.3,84,0.00,,CLR,0.00,VWS V14.01,2013-12-06 13:15:00,
2013-12-06 07:25:00,-8.0,-11.5,30.56,West,279,1.0,7.3,84,0.00,,CLR,0.00,VWS V14.01,2013-12-06 13:25:00,
2013-12-06 07:30:00,-8.2,-11.7,30.56,West,279,2.0,7.3,84,0.00,,CLR,0.00,VWS V14.01,2013-12-06 13:30:00,
2013-12-06 07:35:00,-8.4,-11.9,30.56,WNW,288,1.0,5.2,84,0.00,,CLR,0.00,VWS V14.01,2013-12-06 13:35:00,
2013-12-06 07:45:00,-8.4,-11.9,30.56,WNW,285,2.0,7.3,84,0.00,,CLR,0.00,VWS V14.01,2013-12-06 13:45:00,
2013-12-06 07:55:00,-8.5,-12.0,30.56,WNW,282,1.0,4.2,84,0.00,,CLR,0.00,VWS V14.01,2013-12-06 13:55:00,
2013-12-06 08:10:00,-8.7,-12.5,30.57,WNW,286,2.0,2.1,83,0.00,,CLR,0.00,VWS V14.01,2013-12-06 14:10:00,
2013-12-06 08:20:00,-8.6,-12.1,30.57,WNW,290,0.0,2.1,84,0.00,,CLR,0.00,VWS V14.01,2013-12-06 14:20:00,
2013-12-06 08:25:00,-8.4,-11.9,30.57,WNW,288,0.0,3.1,84,0.00,,CLR,0.00,VWS V14.01,2013-12-06 14:25:00,
2013-12-06 08:35:00,-8.2,-11.7,30.58,West,281,0.0,2.1,84,0.00,,CLR,0.00,VWS V14.01,2013-12-06 14:35:00,
2013-12-06 08:40:00,-7.9,-11.4,30.58,West,265,4.0,4.2,84,0.00,,CLR,0.00,VWS V14.01,2013-12-06 14:40:00,
2013-12-06 08:45:00,-7.6,-11.1,30.58,WNW,288,0.0,6.3,84,0.00,,CLR,0.00,VWS V14.01,2013-12-06 14:45:00,
2013-12-06 08:55:00,-7.0,-10.6,30.59,NW,318,1.0,3.1,84,0.00,,CLR,0.00,VWS V14.01,2013-12-06 14:55:00,
2013-12-06 09:00:00,-6.7,-10.3,30.59,WSW,257,3.0,8.4,84,0.00,,CLR,0.00,VWS V14.01,2013-12-06 15:00:00,
2013-12-06 09:05:00,-6.4,-10.2,30.59,West,275,1.0,8.4,83,0.00,,CLR,0.00,VWS V14.01,2013-12-06 15:05:00,
2013-12-06 09:10:00,-6.2,-10.0,30.60,WNW,286,2.0,6.3,83,0.00,,CLR,0.00,VWS V14.01,2013-12-06 15:10:00,
2013-12-06 09:15:00,-6.0,-9.8,30.60,West,270,7.0,9.4,83,0.00,,CLR,0.00,VWS V14.01,2013-12-06 15:15:00,
2013-12-06 09:20:00,-5.8,-9.6,30.60,WNW,288,4.0,8.4,83,0.00,,CLR,0.00,VWS V14.01,2013-12-06 15:20:00,
2013-12-06 09:25:00,-5.7,-9.5,30.60,WNW,286,3.0,9.4,83,0.00,,CLR,0.00,VWS V14.01,2013-12-06 15:25:00,
2013-12-06 09:30:00,-5.5,-9.3,30.60,WNW,285,1.0,6.3,83,0.00,,CLR,0.00,VWS V14.01,2013-12-06 15:30:00,
2013-12-06 09:35:00,-5.2,-9.0,30.60,West,275,4.0,8.4,83,0.00,,CLR,0.00,VWS V14.01,2013-12-06 15:35:00,
2013-12-06 09:40:00,-5.0,-8.8,30.60,WNW,298,0.0,4.2,83,0.00,,CLR,0.00,VWS V14.01,2013-12-06 15:40:00,
2013-12-06 09:45:00,-4.6,-8.4,30.61,WNW,294,2.0,4.2,83,0.00,,CLR,0.00,VWS V14.01,2013-12-06 15:45:00,
2013-12-06 09:50:00,-4.3,-8.1,30.61,WNW,290,0.0,3.1,83,0.00,,CLR,0.00,VWS V14.01,2013-12-06 15:50:00,
2013-12-06 09:55:00,-3.9,-8.0,30.61,WNW,285,2.0,4.2,82,0.00,,CLR,0.00,VWS V14.01,2013-12-06 15:55:00,
2013-12-06 10:00:00,-3.7,-7.8,30.61,WNW,297,1.0,3.1,82,0.00,,CLR,0.00,VWS V14.01,2013-12-06 16:00:00,
2013-12-06 10:10:00,-3.2,-7.3,30.62,WNW,303,1.0,2.1,82,0.00,,CLR,0.00,VWS V14.01,2013-12-06 16:10:00,
2013-12-06 10:15:00,-3.0,-7.1,30.62,WNW,294,2.0,4.2,82,0.00,,CLR,0.00,VWS V14.01,2013-12-06 16:15:00,
2013-12-06 10:20:00,-2.9,-7.0,30.62,WNW,294,1.0,4.2,82,0.00,,CLR,0.00,VWS V14.01,2013-12-06 16:20:00,
2013-12-06 10:30:00,-2.7,-7.1,30.62,WNW,300,2.0,4.2,81,0.00,,CLR,0.00,VWS V14.01,2013-12-06 16:30:00,
2013-12-06 10:35:00,-2.6,-7.0,30.62,WNW,286,3.0,6.3,81,0.00,,CLR,0.00,VWS V14.01,2013-12-06 16:35:00,
2013-12-06 10:40:00,-2.4,-6.8,30.62,WNW,300,1.0,4.2,81,0.00,,CLR,0.00,VWS V14.01,2013-12-06 16:40:00,
2013-12-06 10:45:00,-2.2,-6.6,30.62,WNW,296,0.0,3.1,81,0.00,,CLR,0.00,VWS V14.01,2013-12-06 16:45:00,
2013-12-06 10:50:00,-2.0,-6.4,30.63,NW,307,2.0,3.1,81,0.00,,CLR,0.00,VWS V14.01,2013-12-06 16:50:00,
2013-12-06 10:55:00,-2.0,-6.4,30.63,WNW,294,3.0,5.2,81,0.00,,CLR,0.00,VWS V14.01,2013-12-06 16:55:00,
2013-12-06 11:00:00,-2.1,-6.5,30.63,WNW,301,4.0,8.4,81,0.00,,CLR,0.00,VWS V14.01,2013-12-06 17:00:00,
2013-12-06 11:05:00,-2.0,-6.4,30.63,WNW,296,1.0,4.2,81,0.00,,CLR,0.00,VWS V14.01,2013-12-06 17:05:00,
2013-12-06 11:10:00,-1.9,-6.3,30.63,WNW,292,2.0,4.2,81,0.00,,CLR,0.00,VWS V14.01,2013-12-06 17:10:00,
2013-12-06 11:20:00,-1.7,-6.1,30.62,NW,306,3.0,5.2,81,0.00,,CLR,0.00,VWS V14.01,2013-12-06 17:20:00,
2013-12-06 11:25:00,-1.6,-6.0,30.62,WNW,285,1.0,4.2,81,0.00,,CLR,0.00,VWS V14.01,2013-12-06 17:25:00,
2013-12-06 11:30:00,-1.5,-5.9,30.62,WNW,297,2.0,4.2,81,0.00,,CLR,0.00,VWS V14.01,2013-12-06 17:30:00,
2013-12-06 11:35:00,-1.4,-6.1,30.62,WNW,299,1.0,4.2,80,0.00,,CLR,0.00,VWS V14.01,2013-12-06 17:35:00,
2013-12-06 11:45:00,-1.3,-6.0,30.62,WNW,299,1.0,4.2,80,0.00,,CLR,0.00,VWS V14.01,2013-12-06 17:45:00,
2013-12-06 11:50:00,-1.0,-5.4,30.61,WNW,296,0.0,3.1,81,0.00,,CLR,0.00,VWS V14.01,2013-12-06 17:50:00,
2013-12-06 12:00:00,-0.6,-5.3,30.62,WNW,298,2.0,6.3,80,0.00,,CLR,0.00,VWS V14.01,2013-12-06 18:00:00,
2013-12-06 12:10:00,-0.8,-5.5,30.62,WNW,303,0.0,8.4,80,0.00,,CLR,0.00,VWS V14.01,2013-12-06 18:10:00,
2013-12-06 12:15:00,-0.5,-5.2,30.62,WNW,295,0.0,7.3,80,0.00,,CLR,0.00,VWS V14.01,2013-12-06 18:15:00,
2013-12-06 12:20:00,-0.5,-5.2,30.62,NW,304,1.0,6.3,80,0.00,,CLR,0.00,VWS V14.01,2013-12-06 18:20:00,
2013-12-06 12:25:00,-0.6,-5.3,30.62,WNW,296,4.0,7.3,80,0.00,,CLR,0.00,VWS V14.01,2013-12-06 18:25:00,
2013-12-06 12:30:00,-0.7,-5.4,30.62,West,276,3.0,8.4,80,0.00,,CLR,0.00,VWS V14.01,2013-12-06 18:30:00,
2013-12-06 12:35:00,-0.6,-5.3,30.62,WNW,284,3.0,7.3,80,0.00,,CLR,0.00,VWS V14.01,2013-12-06 18:35:00,
2013-12-06 12:40:00,-0.5,-5.2,30.62,West,275,4.0,6.3,80,0.00,,CLR,0.00,VWS V14.01,2013-12-06 18:40:00,
2013-12-06 12:45:00,-0.4,-5.1,30.62,WNW,295,2.0,6.3,80,0.00,,CLR,0.00,VWS V14.01,2013-12-06 18:45:00,
2013-12-06 12:50:00,-0.1,-4.8,30.62,WNW,289,2.0,7.3,80,0.00,,CLR,0.00,VWS V14.01,2013-12-06 18:50:00,
2013-12-06 12:55:00,-0.1,-4.7,30.62,WNW,288,7.0,10.5,80,0.00,,CLR,0.00,VWS V14.01,2013-12-06 18:55:00,
2013-12-06 13:05:00,0.1,-4.6,30.62,West,273,6.0,7.3,80,0.00,,CLR,0.00,VWS V14.01,2013-12-06 19:05:00,
2013-12-06 13:15:00,0.4,-4.3,30.62,WNW,286,2.0,6.3,80,0.00,,CLR,0.00,VWS V14.01,2013-12-06 19:15:00,
2013-12-06 13:20:00,0.3,-4.4,30.62,WNW,288,1.0,8.4,80,0.00,,CLR,0.00,VWS V14.01,2013-12-06 19:20:00,
2013-12-06 13:25:00,0.2,-4.5,30.62,WNW,287,2.0,8.4,80,0.00,,CLR,0.00,VWS V14.01,2013-12-06 19:25:00,
2013-12-06 13:35:00,0.6,-3.8,30.61,West,278,6.0,7.3,81,0.00,,CLR,0.00,VWS V14.01,2013-12-06 19:35:00,
2013-12-06 13:40:00,0.6,-4.1,30.62,NW,305,1.0,8.4,80,0.00,,CLR,0.00,VWS V14.01,2013-12-06 19:40:00,
2013-12-06 13:45:00,0.7,-3.8,30.62,WNW,294,2.0,5.2,81,0.00,,CLR,0.00,VWS V14.01,2013-12-06 19:45:00,
2013-12-06 13:55:00,0.8,-3.9,30.62,NW,317,3.0,5.2,80,0.00,,CLR,0.00,VWS V14.01,2013-12-06 19:55:00,
2013-12-06 14:05:00,0.8,-3.9,30.62,NW,311,2.0,5.2,80,0.00,,CLR,0.00,VWS V14.01,2013-12-06 20:05:00,
2013-12-06 14:10:00,0.8,-3.9,30.62,WNW,289,1.0,5.2,80,0.00,,CLR,0.00,VWS V14.01,2013-12-06 20:10:00,
2013-12-06 14:15:00,0.7,-4.0,30.62,WNW,302,2.0,4.2,80,0.00,,CLR,0.00,VWS V14.01,2013-12-06 20:15:00,
2013-12-06 14:20:00,0.6,-4.1,30.62,NW,311,1.0,3.1,80,0.00,,CLR,0.00,VWS V14.01,2013-12-06 20:20:00,
2013-12-06 14:25:00,0.6,-4.1,30.62,WNW,286,2.0,5.2,80,0.00,,CLR,0.00,VWS V14.01,2013-12-06 20:25:00,
2013-12-06 14:30:00,0.7,-4.0,30.62,NW,315,3.0,5.2,80,0.00,,CLR,0.00,VWS V14.01,2013-12-06 20:30:00,
2013-12-06 14:40:00,0.6,-4.1,30.63,NW,313,1.0,8.4,80,0.00,,CLR,0.00,VWS V14.01,2013-12-06 20:40:00,
2013-12-06 14:45:00,0.6,-4.1,30.63,NW,313,2.0,4.2,80,0.00,,CLR,0.00,VWS V14.01,2013-12-06 20:45:00,
2013-12-06 14:50:00,0.6,-4.1,30.63,NW,310,1.0,3.1,80,0.00,,CLR,0.00,VWS V14.01,2013-12-06 20:50:00,
2013-12-06 15:00:00,0.5,-4.2,30.63,WNW,288,1.0,2.1,80,0.00,,CLR,0.00,VWS V14.01,2013-12-06 21:00:00,
2013-12-06 15:05:00,0.5,-4.2,30.63,NW,307,2.0,3.1,80,0.00,,CLR,0.00,VWS V14.01,2013-12-06 21:05:00,
2013-12-06 15:10:00,0.5,-4.2,30.63,NW,304,0.0,3.1,80,0.00,,CLR,0.00,VWS V14.01,2013-12-06 21:10:00,
2013-12-06 15:20:00,0.7,-3.8,30.64,NW,311,0.0,2.1,81,0.00,,CLR,0.00,VWS V14.01,2013-12-06 21:20:00,
2013-12-06 15:25:00,0.7,-3.8,30.64,WNW,300,1.0,3.1,81,0.00,,CLR,0.00,VWS V14.01,2013-12-06 21:25:00,
2013-12-06 15:30:00,0.6,-3.8,30.64,NW,306,1.0,3.1,81,0.00,,CLR,0.00,VWS V14.01,2013-12-06 21:30:00,
2013-12-06 15:35:00,0.6,-3.8,30.64,NW,309,0.0,2.1,81,0.00,,CLR,0.00,VWS V14.01,2013-12-06 21:35:00,
2013-12-06 15:40:00,0.3,-4.4,30.65,NW,312,1.0,4.2,80,0.00,,CLR,0.00,VWS V14.01,2013-12-06 21:40:00,
2013-12-06 15:45:00,0.1,-4.3,30.64,NW,311,1.0,3.1,81,0.00,,CLR,0.00,VWS V14.01,2013-12-06 21:45:00,
2013-12-06 15:50:00,0.1,-4.6,30.65,NW,309,0.0,3.1,80,0.00,,CLR,0.00,VWS V14.01,2013-12-06 21:50:00,
2013-12-06 16:00:00,-0.3,-4.7,30.65,WNW,290,0.0,0.0,81,0.00,,CLR,0.00,VWS V14.01,2013-12-06 22:00:00,
2013-12-06 16:10:00,-0.8,-5.2,30.65,WNW,292,0.0,0.0,81,0.00,,CLR,0.00,VWS V14.01,2013-12-06 22:10:00,
2013-12-06 16:15:00,-1.1,-5.5,30.66,WNW,298,0.0,1.0,81,0.00,,CLR,0.00,VWS V14.01,2013-12-06 22:15:00,
2013-12-06 16:25:00,-1.4,-5.6,30.66,NW,323,0.0,2.1,82,0.00,,CLR,0.00,VWS V14.01,2013-12-06 22:25:00,
2013-12-06 16:30:00,-1.6,-6.0,30.65,NW,322,0.0,2.1,81,0.00,,CLR,0.00,VWS V14.01,2013-12-06 22:30:00,
2013-12-06 16:40:00,-1.9,-6.3,30.66,NW,315,1.0,3.1,81,0.00,,CLR,0.00,VWS V14.01,2013-12-06 22:40:00,
2013-12-06 16:50:00,-2.4,-6.5,30.66,NW,311,0.0,0.0,82,0.00,,CLR,0.00,VWS V14.01,2013-12-06 22:50:00,
2013-12-06 17:00:00,-3.1,-7.5,30.66,NW,311,0.0,0.0,81,0.00,,CLR,0.00,VWS V14.01,2013-12-06 23:00:00,
2013-12-06 17:05:00,-3.7,-8.1,30.66,NW,311,0.0,0.0,81,0.00,,CLR,0.00,VWS V14.01,2013-12-06 23:05:00,
2013-12-06 17:15:00,-4.4,-8.5,30.66,NW,311,0.0,0.0,82,0.00,,CLR,0.00,VWS V14.01,2013-12-06 23:15:00,
2013-12-06 17:20:00,-4.6,-8.7,30.66,NW,311,0.0,0.0,82,0.00,,CLR,0.00,VWS V14.01,2013-12-06 23:20:00,
2013-12-06 17:25:00,-4.8,-8.6,30.66,NW,311,0.0,0.0,83,0.00,,CLR,0.00,VWS V14.01,2013-12-06 23:25:00,
2013-12-06 17:35:00,-5.2,-9.0,30.67,NW,311,0.0,0.0,83,0.00,,CLR,0.00,VWS V14.01,2013-12-06 23:35:00,
2013-12-06 17:40:00,-5.4,-9.2,30.67,NW,311,0.0,0.0,83,0.00,,CLR,0.00,VWS V14.01,2013-12-06 23:40:00,
2013-12-06 17:50:00,-5.8,-9.6,30.67,NW,311,0.0,0.0,83,0.00,,CLR,0.00,VWS V14.01,2013-12-06 23:50:00,
2013-12-06 17:55:00,-5.8,-9.6,30.67,NW,311,0.0,0.0,83,0.00,,CLR,0.00,VWS V14.01,2013-12-06 23:55:00,
2013-12-06 18:00:00,-5.8,-9.4,30.67,NW,311,0.0,0.0,84,0.00,,CLR,0.00,VWS V14.01,2013-12-07 00:00:00,
2013-12-06 18:05:00,-5.8,-9.4,30.68,NW,311,0.0,0.0,84,0.00,,CLR,0.00,VWS V14.01,2013-12-07 00:05:00,
2013-12-06 18:10:00,-5.8,-9.4,30.68,NW,311,0.0,0.0,84,0.00,,CLR,0.00,VWS V14.01,2013-12-07 00:10:00,
2013-12-06 18:15:00,-6.0,-9.6,30.68,WNW,300,0.0,0.0,84,0.00,,CLR,0.00,VWS V14.01,2013-12-07 00:15:00,
2013-12-06 18:20:00,-6.2,-9.8,30.68,WNW,300,0.0,0.0,84,0.00,,CLR,0.00,VWS V14.01,2013-12-07 00:20:00,
2013-12-06 18:25:00,-6.4,-10.0,30.68,WNW,300,0.0,0.0,84,0.00,,CLR,0.00,VWS V14.01,2013-12-07 00:25:00,
2013-12-06 18:30:00,-6.4,-10.2,30.68,WNW,300,0.0,0.0,83,0.00,,CLR,0.00,VWS V14.01,2013-12-07 00:30:00,
2013-12-06 18:35:00,-6.4,-10.0,30.68,WNW,300,0.0,0.0,84,0.00,,CLR,0.00,VWS V14.01,2013-12-07 00:35:00,
2013-12-06 18:40:00,-6.3,-9.9,30.69,WNW,300,0.0,0.0,84,0.00,,CLR,0.00,VWS V14.01,2013-12-07 00:40:00,
2013-12-06 18:50:00,-6.3,-9.9,30.69,WNW,300,0.0,0.0,84,0.00,,CLR,0.00,VWS V14.01,2013-12-07 00:50:00,
2013-12-06 18:55:00,-6.6,-10.4,30.69,WNW,300,0.0,0.0,83,0.00,,CLR,0.00,VWS V14.01,2013-12-07 00:55:00,
2013-12-06 19:00:00,-6.7,-10.3,30.69,WNW,291,0.0,0.0,84,0.00,,CLR,0.00,VWS V14.01,2013-12-07 01:00:00,
2013-12-06 19:10:00,-7.2,-11.0,30.69,WNW,286,0.0,0.0,83,0.00,,CLR,0.00,VWS V14.01,2013-12-07 01:10:00,
2013-12-06 19:15:00,-7.2,-10.8,30.69,WNW,282,1.0,2.1,84,0.00,,CLR,0.00,VWS V14.01,2013-12-07 01:15:00,
2013-12-06 19:20:00,-7.0,-10.6,30.70,WNW,286,0.0,2.1,84,0.00,,CLR,0.00,VWS V14.01,2013-12-07 01:20:00,
2013-12-06 19:25:00,-6.9,-10.4,30.70,WNW,285,1.0,3.1,84,0.00,,CLR,0.00,VWS V14.01,2013-12-07 01:25:00,
2013-12-06 19:30:00,-6.8,-10.4,30.70,WNW,286,1.0,1.0,84,0.00,,CLR,0.00,VWS V14.01,2013-12-07 01:30:00,
2013-12-06 19:35:00,-7.1,-10.6,30.70,WNW,282,0.0,2.1,84,0.00,,CLR,0.00,VWS V14.01,2013-12-07 01:35:00,
2013-12-06 19:40:00,-7.3,-10.8,30.71,WNW,284,0.0,0.0,84,0.00,,CLR,0.00,VWS V14.01,2013-12-07 01:40:00,
2013-12-06 19:45:00,-7.4,-10.9,30.71,WNW,284,0.0,0.0,84,0.00,,CLR,0.00,VWS V14.01,2013-12-07 01:45:00,
2013-12-06 19:50:00,-7.4,-10.9,30.71,WNW,284,0.0,0.0,84,0.00,,CLR,0.00,VWS V14.01,2013-12-07 01:50:00,
2013-12-06 20:00:00,-7.7,-11.2,30.71,WNW,284,0.0,0.0,84,0.00,,CLR,0.00,VWS V14.01,2013-12-07 02:00:00,
2013-12-06 20:05:00,-7.9,-11.4,30.71,WNW,284,0.0,0.0,84,0.00,,CLR,0.00,VWS V14.01,2013-12-07 02:05:00,
2013-12-06 20:10:00,-8.2,-11.7,30.71,WNW,284,0.0,0.0,84,0.00,,CLR,0.00,VWS V14.01,2013-12-07 02:10:00,
2013-12-06 20:15:00,-8.6,-12.1,30.71,WNW,284,0.0,0.0,84,0.00,,CLR,0.00,VWS V14.01,2013-12-07 02:15:00,
2013-12-06 20:25:00,-9.1,-12.6,30.72,WNW,284,0.0,0.0,84,0.00,,CLR,0.00,VWS V14.01,2013-12-07 02:25:00,
2013-12-06 20:35:00,-8.9,-12.4,30.72,WNW,284,0.0,0.0,84,0.00,,CLR,0.00,VWS V14.01,2013-12-07 02:35:00,
2013-12-06 20:40:00,-8.5,-11.8,30.72,WNW,284,0.0,0.0,85,0.00,,CLR,0.00,VWS V14.01,2013-12-07 02:40:00,
2013-12-06 20:45:00,-8.1,-11.4,30.73,WNW,286,0.0,3.1,85,0.00,,CLR,0.00,VWS V14.01,2013-12-07 02:45:00,
2013-12-06 20:55:00,-7.3,-10.6,30.73,WNW,288,1.0,2.1,85,0.00,,CLR,0.00,VWS V14.01,2013-12-07 02:55:00,
2013-12-06 21:00:00,-6.9,-10.2,30.73,West,281,1.0,2.1,85,0.00,,CLR,0.00,VWS V14.01,2013-12-07 03:00:00,
2013-12-06 21:05:00,-6.7,-10.0,30.73,WNW,291,3.0,4.2,85,0.00,,CLR,0.00,VWS V14.01,2013-12-07 03:05:00,
2013-12-06 21:15:00,-7.2,-10.8,30.73,WNW,289,0.0,4.2,84,0.00,,CLR,0.00,VWS V14.01,2013-12-07 03:15:00,
2013-12-06 21:25:00,-7.1,-10.6,30.73,WNW,286,0.0,1.0,84,0.00,,CLR,0.00,VWS V14.01,2013-12-07 03:25:00,
2013-12-06 21:30:00,-7.5,-11.0,30.73,WNW,301,0.0,2.1,84,0.00,,CLR,0.00,VWS V14.01,2013-12-07 03:30:00,
2013-12-06 21:40:00,-7.6,-11.4,30.73,WNW,283,0.0,0.0,83,0.00,,CLR,0.00,VWS V14.01,2013-12-07 03:40:00,
2013-12-06 21:45:00,-7.4,-10.9,30.73,West,280,1.0,4.2,84,0.00,,CLR,0.00,VWS V14.01,2013-12-07 03:45:00,
2013-12-06 21:55:00,-7.7,-11.2,30.74,WNW,289,0.0,1.0,84,0.00,,CLR,0.00,VWS V14.01,2013-12-07 03:55:00,
2013-12-06 22:00:00,-7.7,-11.2,30.74,WNW,288,1.0,3.1,84,0.00,,CLR,0.00,VWS V14.01,2013-12-07 04:00:00,
2013-12-06 22:05:00,-7.8,-11.3,30.74,WNW,285,0.0,2.1,84,0.00,,CLR,0.00,VWS V14.01,2013-12-07 04:05:00,
2013-12-06 22:10:00,-8.0,-11.8,30.74,WNW,298,0.0,3.1,83,0.00,,CLR,0.00,VWS V14.01,2013-12-07 04:10:00,
2013-12-06 22:15:00,-7.9,-11.4,30.74,West,281,2.0,3.1,84,0.00,,CLR,0.00,VWS V14.01,2013-12-07 04:15:00,
2013-12-06 22:20:00,-7.7,-11.2,30.74,WNW,283,0.0,6.3,84,0.00,,CLR,0.00,VWS V14.01,2013-12-07 04:20:00,
2013-12-06 22:25:00,-7.7,-11.2,30.74,West,274,2.0,3.1,84,0.00,,CLR,0.00,VWS V14.01,2013-12-07 04:25:00,
2013-12-06 22:30:00,-7.9,-11.7,30.75,West,274,1.0,2.1,83,0.00,,CLR,0.00,VWS V14.01,2013-12-07 04:30:00,
2013-12-06 22:40:00,-8.8,-12.6,30.75,West,279,0.0,2.1,83,0.00,,CLR,0.00,VWS V14.01,2013-12-07 04:40:00,
2013-12-06 22:45:00,-8.9,-12.7,30.75,West,272,1.0,2.1,83,0.00,,CLR,0.00,VWS V14.01,2013-12-07 04:45:00,
2013-12-06 22:55:00,-9.1,-12.6,30.75,West,270,2.0,2.1,84,0.00,,CLR,0.00,VWS V14.01,2013-12-07 04:55:00,
2013-12-06 23:05:00,-9.2,-12.7,30.76,West,279,0.0,4.2,84,0.00,,CLR,0.00,VWS V14.01,2013-12-07 05:05:00,
2013-12-06 23:10:00,-9.4,-12.9,30.76,West,271,2.0,6.3,84,0.00,,CLR,0.00,VWS V14.01,2013-12-07 05:10:00,
2013-12-06 23:15:00,-9.4,-12.9,30.76,West,273,1.0,4.2,84,0.00,,CLR,0.00,VWS V14.01,2013-12-07 05:15:00,
2013-12-06 23:20:00,-9.4,-12.9,30.76,West,272,1.0,3.1,84,0.00,,CLR,0.00,VWS V14.01,2013-12-07 05:20:00,
2013-12-06 23:30:00,-9.7,-13.2,30.76,West,276,4.0,6.3,84,0.00,,CLR,0.00,VWS V14.01,2013-12-07 05:30:00,
2013-12-06 23:35:00,-9.8,-13.5,30.76,West,271,2.0,6.3,83,0.00,,CLR,0.00,VWS V14.01,2013-12-07 05:35:00,
2013-12-06 23:40:00,-10.0,-13.7,30.76,West,275,2.0,4.2,83,0.00,,CLR,0.00,VWS V14.01,2013-12-07 05:40:00,
2013-12-06 23:45:00,-10.0,-13.5,30.76,West,277,0.0,2.1,84,0.00,,CLR,0.00,VWS V14.01,2013-12-07 05:45:00,
2013-12-06 23:50:00,-10.0,-13.5,30.76,West,272,0.0,2.1,84,0.00,,CLR,0.00,VWS V14.01,2013-12-07 05:50:00,